• Join FlightAware (Why Join?)
  • Login
  • US Flag GB Flag 
14:42 EDT


 

Airport Tracker/Info


-or-


 

Live Flight TrackerFlight Track Log ✈ FSR411 ✈ 13-Aug-2013 ✈ KDET - KCMI

Flight Track Log - Related Links

Times and Time Zones

All times are in EDT time to prevent confusion due to time zone crossing. See the FSR411 flight status page for this flight to view local times or setup timezone preferences in your user account.

Time Position Orientation Groundspeed Altitude Reporting Facility
EDT Latitude Longitude Course Direction KTS MPH feet Rate Location/Type
16:28 42.4219 -83.0219 220° Southwest 137 158 1,400  Level Cleveland Center
16:29 42.4653 -83.0431 340° North 222 255 3,200 3,360 Climbing Cleveland Center
16:30 42.5017 -83.0925 315° West 211 243 7,600 3,840 Climbing Cleveland Center
16:31 42.4914 -83.1739 260° West 250 288 10,700 2,760 Climbing Cleveland Center
16:32 42.4842 -83.2242 259° West 296 341 11,900 1,320 Climbing Cleveland Center
16:33 42.4603 -83.3525 256° West 334 384 12,900 540 Climbing Cleveland Center
16:34 41.9937 -83.4529 220° Southwest  Level FlightAware Approximate
16:34 42.3756 -83.4081 206° Southwest 370 426 13,000  Level Cleveland Center
16:35 42.2803 -83.4600 202° Southwest 370 426 13,100 1,260 Climbing Cleveland Center
16:36 42.1831 -83.5144 203° Southwest 380 437 15,600 2,880 Climbing Cleveland Center
16:37 42.0731 -83.5764 203° Southwest 380 437 18,900 3,120 Climbing Cleveland Center
16:38 41.9736 -83.6306 202° Southwest 380 437 21,900 2,760 Climbing Cleveland Center
16:39 41.8742 -83.6869 203° Southwest 380 437 24,500 2,220 Climbing Cleveland Center
16:40 41.7706 -83.7433 202° Southwest 386 444 26,400 1,440 Climbing Cleveland Center
16:41 41.6644 -83.8047 203° Southwest 404 465 27,400 780 Climbing Cleveland Center
16:42 41.5686 -83.8806 211° Southwest 404 465 28,000 300 Climbing Cleveland Center
16:43 41.4683 -83.9586 210° Southwest 419 482 28,000  Level Cleveland Center
16:44 41.3700 -84.0336 210° Southwest 419 482 28,000  Level Cleveland Center
16:45 41.2739 -84.1142 212° Southwest 414 476 28,000  Level Cleveland Center
16:46 41.2178 -84.2383 239° Southwest 389 448 28,000  Level Cleveland Center
16:47 41.1778 -84.4158 253° West 390 449 28,000  Level Chicago Center
16:48 41.1428 -84.5514 251° West 389 448 28,000  Level Chicago Center
16:49 41.1042 -84.6872 249° West 392 451 28,000  Level Chicago Center
16:50 41.0669 -84.8233 250° West 393 452 28,000  Level Chicago Center
16:51 41.0275 -84.9603 249° West 395 455 28,000  Level Chicago Center
16:52 40.9894 -85.0964 250° West 395 455 28,000  Level Chicago Center
16:53 40.9517 -85.2328 250° West 393 452 28,000  Level Chicago Center
16:54 40.9047 -85.3964 249° West 394 453 28,000  Level Chicago Center
16:55 40.8658 -85.5328 249° West 396 456 28,000  Level Chicago Center
16:56 40.8261 -85.6675 249° West 394 453 28,000  Level Chicago Center
16:57 40.7875 -85.8033 249° West 394 453 28,000  Level Chicago Center
16:58 40.7486 -85.9383 249° West 393 452 28,000  Level Chicago Center
16:59 40.7100 -86.0733 249° West 393 452 28,000  Level Chicago Center
17:00 40.6653 -86.2278 249° West 392 451 28,000 -540 Level Chicago Center
17:01 40.6261 -86.3600 249° West 391 450 27,000 -1,380 Descending Chicago Center
17:02 40.5867 -86.4919 249° West 389 448 25,200 -1,500 Descending Chicago Center
17:04 40.5489 -86.6228 249° West 387 445 24,000 -1,560 Descending Chicago Center
17:05 40.5014 -86.7800 248° West 389 448 22,000 -1,860 Descending Chicago Center
17:06 40.4631 -86.9092 249° West 384 442 20,200 -1,680 Descending Chicago Center
17:07 40.4244 -87.0347 248° West 376 433 18,500 -1,680 Descending Chicago Center
17:08 40.3878 -87.1581 249° West 369 425 16,800 -1,740 Descending Chicago Center
17:09 40.3500 -87.2794 248° West 364 419 15,000 -1,920 Descending Chicago Center
17:10 40.3053 -87.4244 248° West 360 414 12,900 -1,800 Descending Chicago Center
17:11 40.2694 -87.5450 249° West 345 397 11,400 -1,620 Descending Chicago Center
17:12 40.2383 -87.6439 248° West 304 350 9,600 -1,800 Descending Chicago Center
17:13 40.2089 -87.7381 248° West 285 328 7,700 -1,800 Descending Chicago Center
17:14 40.1825 -87.8225 248° West 273 314 5,900 -1,680 Descending Chicago Center
17:15 40.1508 -87.9139 246° West 264 304 4,300 -1,080 Descending Chicago Center
17:16 40.0978 -87.9978 230° Southwest 266 306 3,700 -600 Descending Chicago Center
17:18 40.0567 -88.1798 246° West  Level FlightAware Approximate
17:25 40.0333 -88.2667 252° West  Level FlightAware Approximate
17:26 40.0388 -88.2778 252° West  Level Estimated
17:27 40.0388 -88.2778 252° West  Level Estimated
17:28 40.0388 -88.2778 252° West  Level Estimated
17:29 40.0388 -88.2778 252° West  Level Estimated